Weather in Krugloye

Russia / Rostov Oblast     47°00′46″N   39°13′53″E
temp.,
°C
wind,
m/s
gust,
m/s
humid.,
%
clouds,
%
prec.,
mm/h
press.,
hPa
HPBL,
m
1 march, mon
mon100:00+1w459497 0.0 102198
03:00+1w349598 0.0 102185
06:00+1w3598100 0.0 1022129
09:00+1nw2395100 0.3 1024174
12:00+2wnw2391100 0.0 1025245
15:00+2nw238376 0.1 1025373
18:00+2wnw238451 0.0 102663
21:00+1wnw228957 0.0 102829
2 march, tue
tue200:000nne019448 0.0 102922
03:00−1nnw019424 0.0 102921
06:00−1wsw22930 0.0 102825
09:00+1wsw34846 0.0 1028176
12:00+3w69720 0.0 1026689
15:00+4wsw812628 0.0 1024672
18:00+2wsw8147166 0.0 1021524
21:00+2wsw9167783 0.0 1021567
3 march, wed
wed300:00+2wsw10177996 0.0 1018586
03:00+1wsw10169798 0.2 1016596
06:000wnw71198100 1.4 1015428
09:00+2nw61191100 2.4 1017517
12:00+3nnw587295 0.0 1020755
15:00+3nw696994 0.1 1021818
18:00+2nw487097 0.1 1023266
21:00+1nw477551 0.1 1025159
4 march, thu
thu400:000wnw23760 0.0 102640
03:00−1wsw34760 0.0 102762
06:00−1wsw35790 0.0 1026101
09:00+2sw59680 0.0 1026340
12:00+4wsw69630 0.0 1024655
15:00+5wsw69630 0.0 1022679
18:00+4wsw510690 0.0 1020276
21:00+2sw613740 0.0 1020293
5 march, fri
fri500:00+2sw7158630 0.0 1019356
03:00+2sw7148858 0.0 1018382
06:00+1sw6129014 0.0 1017302
09:00+3sw7128318 0.0 1018440
12:00+6sw711710 0.0 1017549
15:00+7sw812590 0.0 1016663
18:00+6sw613620 0.0 1014396
21:00+5ssw6147535 0.0 1015447